Regional Weather Roundup
Issued by NWS

Home | Current Version | Previous Version | Text Only | Print | Product List | Glossary Off
Versions: 1 2 3 4 5 6 7 8 9 10 11 12 13 14 15 16 17 18 19 20 21 22 23 24 25 26 27 28 29 30 31 32 33 34 35 36 37 38 39 40 41 42 43 44 45 46 47 48 49 50

584
ASUS43 KMKX 061200
RWRWI

WISCONSIN REGIONAL WEATHER ROUNDUP
NATIONAL WEATHER SERVICE MILWAUKEE/SULLIVAN WI
600 AM CST SAT FEB 06 2016

NOTE: "FAIR" INDICATES FEW OR NO CLOUDS BELOW 12,000 FEET WITH NO
SIGNIFICANT WEATHER AND/OR OBSTRUCTIONS TO VISIBILITY.

WIZ001-002-006>008-014>016-023>028-061300-
NORTHWEST WISCONSIN

CITY           SKY/WX    TMP DP  RH WIND       PRES   REMARKS
SUPERIOR ARPT  PTCLDY    21  17  83 SW8       30.08S WCI  12
ASHLAND        CLOUDY    23  18  81 SW8       30.08S WCI  14
6HR MIN TEMP:  22; 6HR MAX TEMP:  24;

HAYWARD        CLOUDY    23  18  81 VRB6      30.08S WCI  16
6HR MIN TEMP:  22; 6HR MAX TEMP:  23;

SIREN          CLOUDY    24  20  85 W8        30.11R WCI  15
CUMBERLAND     CLOUDY    23  21  93 W9        30.09F WCI  13
RICE LAKE      CLOUDY    25  21  85 SW5       30.12S WCI  19
CHETEK         CLOUDY    24  22  90 SW5       30.12S WCI  18
LADYSMITH      CLOUDY    23  22  95 SW6       30.12S FOG     WCI  16
EAU CLAIRE     CLOUDY    25  21  85 SW9       30.13S WCI  15
MENOMONIE      CLOUDY    27  22  84 SW9       30.14S WCI  17
NEW RICHMOND   CLOUDY    24  21  85 W10       30.13S WCI  14
OSCEOLA        CLOUDY    25  22  87 SW6       30.16S WCI  18
$$

WIZ003>005-009-010-017-018-061300-
NORTH CENTRAL WISCONSIN

CITY           SKY/WX    TMP DP  RH WIND       PRES   REMARKS
MANITOWISH WTR CLOUDY    20  19  98 SW8       30.04S WCI  10
ARBOR VITAE    CLOUDY    22  20  92 W6        30.05S FOG     WCI  14
WOODRUFF       CLOUDY    22  20  92 W6        30.05S FOG     WCI  14
RHINELANDER    CLOUDY    20  18  92 W6        30.06S FOG     WCI  12
6HR MIN TEMP:  20; 6HR MAX TEMP:  20; 6HR PCP: TRACE;

EAGLE RIVER    CLOUDY    20  19  96 W7        30.04S FOG     WCI  11
LAND O LAKES   CLOUDY    21  19  92 W5        30.03S WCI  15
PHILLIPS       CLOUDY    20  20  98 SW7       30.07R FOG     WCI  11
TOMAHAWK       CLOUDY    20  19  94 CALM      30.08F FOG
MEDFORD        CLOUDY    22  22  99 SW7       30.08S FOG     WCI  13
MERRILL        CLOUDY    22  21  97 W6        30.11S FOG     WCI  14
$$

WIZ029-030-035-036-043>047-061300-
CENTRAL WISCONSIN

CITY           SKY/WX    TMP DP  RH WIND       PRES   REMARKS
WAUSAU         CLOUDY    24  21  88 W10       30.10S WCI  14
6HR MIN TEMP:  23; 6HR MAX TEMP:  24; 6HR PCP: TRACE;

MOSINEE        CLOUDY    21  21 100 SW9       30.13S FOG     WCI  11
MARSHFIELD     CLOUDY    24  20  84 SW9       30.11S FOG     WCI  14
6HR MIN TEMP:  23; 6HR MAX TEMP:  24; 6HR PCP: TRACE;

STEVENS POINT  CLOUDY    22  21  96 W8        30.15R FOG     WCI  13
WAUPACA        CLOUDY    28  22  79 SW9       30.16S WCI  19
WAUTOMA        NOT AVBL
WISC RAPIDS    CLOUDY    25  21  85 W7        30.16F WCI  17
6HR MIN TEMP:  22; 6HR MAX TEMP:  25; 6HR PCP: TRACE;

CAMP DOUGLAS   NOT AVBL
$$

WIZ011>013-019>022-031-037>040-048>050-061300-
NORTHEAST WISCONSIN

CITY           SKY/WX    TMP DP  RH WIND       PRES   REMARKS
ANTIGO         CLOUDY    20  19  97 W10       30.08S FOG     WCI   9
SHAWANO        CLOUDY    27  22  81 SW9       30.15R WCI  18
OCONTO         CLOUDY    25  21  84 W8        30.14S WCI  16
STURGEON BAY   CLOUDY    25  18  74 W15       30.15S WCI  12
6HR MIN TEMP:  25; 6HR MAX TEMP:  27;

GREEN BAY      CLOUDY    26  20  77 SW10      30.16R WCI  16
6HR MIN TEMP:  23; 6HR MAX TEMP:  26; 6HR PCP: TRACE;

MANITOWOC      NOT AVBL
APPLETON       CLOUDY    25  19  80 SW10      30.14S WCI  15
CLINTONVILLE   CLOUDY    27  21  80 W9        30.15S WCI  17
OSHKOSH        CLOUDY    27  18  69 SW6       30.17S WCI  20
6HR MIN TEMP:  24; 6HR MAX TEMP:  27;

$$

WIZ032>034-041-042-053>061-061300-
SOUTHWEST WISCONSIN

CITY           SKY/WX    TMP DP  RH WIND       PRES   REMARKS
LA CROSSE      CLOUDY    28  23  81 W7        30.19F WCI  21
6HR MIN TEMP:  25; 6HR MAX TEMP:  28;

SPARTA         CLOUDY    26  24  93 SW3       30.19S
VIROQUA        CLOUDY    26  25  98 SW8       30.16F WCI  17
BOSCOBEL       CLOUDY    29  24  82 SW6       30.22S WCI  23
6HR MIN TEMP:  26; 6HR MAX TEMP:  29;

PRAIRIE DU CHI CLOUDY    29  24  79 SW6       30.23R WCI  23
PLATTEVILLE    CLOUDY    27  24  87 SW9       30.21R WCI  18
$$

WIZ056-057-062-063-064-067-068-061300-
SOUTH CENTRAL WISCONSIN

CITY           SKY/WX    TMP DP  RH WIND       PRES   REMARKS
REEDSBURG      CLOUDY    27  21  80 SW8       30.18F WCI  18
BARABOO/DELLS  CLOUDY    27  20  77 SW9       30.18S WCI  17
LONE ROCK      CLOUDY    28  21  75 W5        30.21F WCI  23
6HR MIN TEMP:  27; 6HR MAX TEMP:  28;

MINERAL POINT  MIX PCPN  28  23  80 SW8       30.19S WCI  20
MADISON        MOCLDY    27  20  75 SW6       30.20S WCI  20
6HR MIN TEMP:  27; 6HR MAX TEMP:  27;

MIDDLETON      CLOUDY    28  22  78 W8        30.20S WCI  20
WATERTOWN      CLOUDY    27  23  84 SW8       30.19F WCI  19
MONROE         PTCLDY    27  23  86 SW9       30.20S WCI  17
JANESVILLE     PTCLDY    27  25  93 SW8       30.22F WCI  18
$$

WIZ051-052-058>065-066-070>072-061300-
SOUTHEAST WISCONSIN

CITY           SKY/WX    TMP DP  RH WIND       PRES   REMARKS
MILWAUKEE      PTCLDY    27  20  75 SW9       30.21F WCI  18
6HR MIN TEMP:  26; 6HR MAX TEMP:  29;

WAUKESHA       MOCLDY    27  18  69 SW3       30.21F
MILWAUKEE/TIMM PTCLDY    27  21  80 SW7       30.21F WCI  19
RACINE         CLEAR     27  20  75 SW9       30.24F WCI  18
6HR MIN TEMP:  27; 6HR MAX TEMP:  28;

BURLINGTON     MOCLDY    25  21  85 SW6       30.22F WCI  18
KENOSHA        PTCLDY    25  21  85 SW8       30.23F WCI  16
6HR MIN TEMP:  25; 6HR MAX TEMP:  28;

FOND DU LAC    CLOUDY    27  19  72 SW8       30.18S WCI  19
6HR MIN TEMP:  25; 6HR MAX TEMP:  27;

SHEBOYGAN      CLOUDY    28  18  66 SW15      30.17F WCI  16
6HR MIN TEMP:  26; 6HR MAX TEMP:  28;

WEST BEND      CLOUDY    28  21  74 SW7       30.18F WCI  21
JUNEAU         CLOUDY    26  22  83 S10       30.20S WCI  16
$$

LSZ147-162-061300-
LAKE SUPERIOR

STATION/POSITION TIME  TEMP    WIND        PRES    WAVE
                       AIR SEA DIR/SP/G            HT/PER
                 (UTC) (F)     (DEG/KT/KT) (MB)    (FT/S)
DEVILS ISLAND    1100   28     250/ 20/ 23 1018.5S
SAXON HARBOR     1140   25                 1018.3F
$$

LMZ867-665-643>646-061300-
LAKE MICHIGAN

STATION/POSITION TIME  TEMP    WIND        PRES    WAVE
                       AIR SEA DIR/SP/G            HT/PER
                 (UTC) (F)     (DEG/KT/KT) (MB)    (FT/S)
CHAMBERS ISLAND  1100   26     210/  8/ 15 1020.3S
ALGOMA LAKESHORE 1011          270/ 11/ 16   N/A
KEWAUNEE LAKESHO 1100   27     260/ 12/ 16 1020.1F
SHEBOYGAN LAKESH 1100   29     220/ 11/ 12 1023.2F
PORT WASHINGTON  1140   28     240/  6/ 10 1023.4F
MILWAUKEE LAKESH 1110   29     230/  9/ 10   N/A
KENOSHA   LAKESH 1100   28     240/  9/ 12 1024.0F
$$

TC  - TEMPERATURE IN CELSIUS
VSB - VISIBILITY IN STATUTE MILES
WCI - WIND CHILL INDEX
HX  - HEAT INDEX





USA.gov is the U.S. government's official web portal to all federal, state and local government web resources and services.